Regional Weather Roundup
Issued by NWS Newport/Morehead, NC

Current Version | Previous Version | Graphics & Text | Print | Product List | Glossary On
Versions: 1 2 3 4 5 6 7 8 9 10 11 12 13 14 15 16 17 18 19 20 21 22 23 24 25 26 27 28 29 30 31 32 33 34 35 36 37 38 39 40 41 42 43 44 45 46 47 48 49 50
000 ASUS42 KMHX 281210 RWRMHX WEATHER ROUNDUP FOR EASTERN NORTH CAROLINA NATIONAL WEATHER SERVICE NEWPORT/MOREHEAD CITY NC 700 AM EST SUN DEC 28 2014 NOTE: "FAIR" INDICATES FEW OR NO CLOUDS BELOW 12,000 FEET WITH NO SIGNIFICANT WEATHER AND/OR OBSTRUCTIONS TO VISIBILITY NCZ015>017-031-032-045>047-102-103-281300- NORTH COAST CITY SKY/WX TMP DP RH WIND PRES REMARKS EDENTON MOCLDY 52 48 85 SW8 30.08F ELIZABETH CITY MOCLDY 56 47 71 S10 30.07F KITTY HAWK MOSUNNY 51 49 91 SW5 30.08R MANTEO MOCLDY 50 48 93 SW3 30.10R $$ NCZ045>047-081-094-103-104-281300- CENTRAL COAST CITY SKY/WX TMP DP RH WIND PRES REMARKS FRISCO MOCLDY 55 52 89 SW5 30.10F SWANQUARTER N/A 52 N/A N/A SW2 30.06S $$ NCZ095-097-098-100-101-281300- SOUTHERN COAST CITY SKY/WX TMP DP RH WIND PRES REMARKS BEAUFORT MOCLDY 51 50 96 CALM 30.12S CEDAR ISLAND N/A 54 N/A N/A S3 30.15S JACKSONVILLE CLOUDY 50 48 93 W3 30.13R PINEY ISLAND MOSUNNY 54 49 83 S3 30.11S WILMINGTON MOCLDY 51 49 92 CALM 30.13R $$ NCZ011>013-027>030-043-044-078>080-089-090>093-098-281300- COASTAL PLAIN CITY SKY/WX TMP DP RH WIND PRES REMARKS AHOSKIE CLOUDY 52 47 83 SW5 30.06R CLINTON CLOUDY 52 48 86 CALM 30.12S ELIZABETHTOWN CLOUDY 51 47 84 SW3 30.13R GOLDSBORO CLOUDY 54 53 98 S5 30.08F GREENVILLE CLOUDY 54 46 76 SW6 30.10S HAVELOCK MOCLDY 49 46 90 CALM 30.13R KENANSVILLE CLOUDY 48 46 92 CALM 30.12S KINSTON NOT AVBL NEW BERN MOCLDY 50 46 86 CALM 30.13R RICHLANDS CLOUDY 50 46 87 CALM 30.13R ROCKY MOUNT CLOUDY 53 48 83 S8 30.07F WASHINGTON CLOUDY 52 47 84 S5 30.10F WHITEVILLE MOCLDY 51 48 90 CALM 30.13R $$ AMZ130-135-150-152-154-156-158-170-250-252-270-ANZ085-086-088-633-658-670-281300- MARINE OBSERVATIONS STATION/POSITION TIME TEMP WIND PRES WAVE SWELL AIR SEA DIR/SP/G HT/PER HT/PER (UTC) (F) (DEG/KT/KT) (MB) (FT/S) (FT/S) CHESAPEAKE LIGHT 1100 50 210/ 22/ 23 1017.0 64 E VA BEACH 1200 55 53 220/ 12/ 14 1017.7 4/14 3/14 DUCK 1200 53 49 200/ 7/ 11 1017.6 2 E DUCK 1200 48 N/A 2/15 2/15 10 NE DUCK 1200 50 N/A 3/13 2/13 OREGON INLET 1200 52 53 200/ 9/ 9 1018.8 13E OREGON INLT 1200 54 N/A 3/13 2/13 HATTERAS CG 1200 56 55 190/ 3/ 5 1019.7 DIAMOND BUOY 1200 70 1019.5 4/14 17 S OCRACOKE NOT AVBL CAPE LOOKOUT 1100 58 CALM / 2 1019.9 BEAUFORT LAB 1200 54 54 140/ 2/ 3 1018.6 30 SE NEW RIVER 1200 63 61 190/ 6/ 6 1020.3 3/14 3/14 5 SE WRIGHTSVLE NOT AVBL 225 S CAPE HAT 1147 72 74 180/ 14/ 17 1022.4 5/15 5/15 41 SE CHARLESTON 1200 72 74 210/ 10/ 12 1019.9 3/15 2/15 $$

USA.gov is the U.S. government's official web portal to all federal, state and local government web resources and services.